Starlink 3895

operational
NORAD ID: 52583 Int'l Des: 2022-051 Owner: SPXS Country: US Constellation: starlink
LEOCIRCULAR

About Starlink 3895

Description loading...

Live Position

Loading 3D Globe...

Upcoming Passes

Altitude History

Altitude vs Time

uPlot chart will show altitude changes over time

Two-Line Element Set

1 52583U 22051AZ 26095.43151848 .00000118 00000-0 25496-4 0 9999
2 52583 53.2188 359.0722 0001177 84.8914 275.2213 15.08843856215626
Epoch: Apr 5, 2026 • Age: 11 hours

Current Status

Altitude 558.7 km
Velocity 7.58 km/s
Sub-Earth Point -52.31°S, 131.72°E
Launch Date May 13, 2022
Age 3.8 years
Type internet

Technical Details

Classification Payload
Mass 297.00 kg
Dry Mass 275.00 kg
Total Mass 297.00 kg
Length 0.20 m
Diameter 2.80 m
Span 9.00 m
Shape Box + pan
Manufacturer SPXS
Bus Type Starlink
Phase Status In Orbit
Owner/State SPXS/US

Large Constellations

Loading constellations...